Grand Island, NE

9:48 PM CST on December 12, 2017 (GMT -0600)
Central Nebraska Regional

Weather History for KGRI - June, 2013

Change the Weather History Date:

Friday, June 14, 2013

  Actual Average Record
Temperature  
Mean Temperature 83 °F 71 °F  
Max Temperature 100 °F 83 °F 103 °F (1952)
Min Temperature 65 °F 59 °F 44 °F (1969)
Degree Days  
Heating Degree Days 0 1  
Month to date heating degree days 21 19  
Since 1 June heating degree days 21 19  
Since 1 July heating degree days 6133 6194  
Cooling Degree Days 18 7  
Month to date cooling degree days 65 72  
Year to date cooling degree days 160 137  
Since 1 June cooling degree days 65 72  
Growing Degree Days 32 (Base 50)    
Moisture  
Dew Point 59 °F    
Average Humidity 57    
Maximum Humidity 87    
Minimum Humidity 26    
Precipitation  
Precipitation 0.07 in 0.15 in 2.59 in (2014)
Month to date precipitation 0.20 2.14  
Year to date precipitation 13.57 12.09  
Snow  
Snow 0.00 in 0.00 in - ()
Month to date snowfall 0.0 0.0  
Since 1 June snowfall 0.0 0.0  
Since 1 July snowfall 35.2 29.0  
Snow Depth 0.00 in    
Sea Level Pressure  
Sea Level Pressure 29.82 in    
Wind  
Wind Speed 15 mph (South)    
Max Wind Speed 41 mph    
Max Gust Speed 54 mph    
Visibility 10 miles    
Events Rain , Thunderstorm    
T = Trace of Precipitation, MM = Missing Value Source: NWS Daily Summary

Daily Weather History Graph

Daily Weather History Graph

Search for Another Location

Airport or City:

Trip Planner

Search our weather history database for the weather conditions in past years. The results will help you decide how hot, cold, wet, or windy it might be!

Date:

Astronomy

Jun. 14, 2013 Rise Set
Actual Time 6:00 AM CDT 9:06 PM CDT
Civil Twilight 5:27 AM CDT 9:40 PM CDT
Nautical Twilight 4:44 AM CDT 10:23 PM CDT
Astronomical Twilight 3:53 AM CDT 11:13 PM CDT
Moon 11:39 AM CDT (6/14) 12:11 AM CDT (6/14)
Length of Visible Light 16h 13m
Length of Day
15h 06m
Waxing Crescent, 30% of the Moon is Illuminated
Jun 14
Waxing Crescent
Jun 16
First Quarter
Jun 23
Full
Jun 29
Last Quarter
Jul 8
New

Hourly Weather History & Observations

Time (CDT) Temp. Heat Index Dew Point Humidity Pressure Visibility Wind Dir Wind Speed Gust Speed Precip Events Conditions
12:53 AM 64.9 °F - 55.9 °F 73% 30.02 in 10.0 mi East 4.6 mph - N/A   Partly Cloudy
1:53 AM 64.9 °F - 55.9 °F 73% 29.99 in 10.0 mi SE 8.1 mph - N/A   Partly Cloudy
2:53 AM 66.0 °F - 55.9 °F 70% 29.91 in 10.0 mi SE 16.1 mph 23.0 mph N/A   Clear
3:53 AM 66.9 °F - 55.9 °F 68% 29.88 in 10.0 mi SE 17.3 mph 29.9 mph N/A   Partly Cloudy
4:53 AM 66.9 °F - 57.0 °F 70% 29.92 in 10.0 mi South 15.0 mph 27.6 mph N/A   Partly Cloudy
5:53 AM 66.9 °F - 59.0 °F 76% 29.88 in 10.0 mi Variable 5.8 mph - N/A   Mostly Cloudy
6:42 AM 66.2 °F - 62.6 °F 88% 29.89 in 10.0 mi SSE 21.9 mph 28.8 mph 0.00 in Rain Light Rain
6:53 AM 66.9 °F - 62.1 °F 84% 29.83 in 10.0 mi SSE 17.3 mph 25.3 mph 0.00 in   Mostly Cloudy
7:00 AM 66.2 °F - 62.6 °F 88% 29.85 in 10.0 mi SE 12.7 mph 21.9 mph N/A Thunderstorm Mostly Cloudy
7:53 AM 68.0 °F - 63.0 °F 84% 29.78 in 10.0 mi South 27.6 mph 38.0 mph 0.00 in Thunderstorm Partly Cloudy
8:29 AM 69.8 °F - 64.4 °F 83% 29.84 in 10.0 mi SSE 13.8 mph 21.9 mph N/A   Clear
8:53 AM 70.0 °F - 64.0 °F 81% 29.80 in 10.0 mi South 15.0 mph 20.7 mph N/A   Clear
9:53 AM 73.0 °F - 66.0 °F 79% 29.80 in 10.0 mi South 20.7 mph 31.1 mph N/A   Clear
10:53 AM 79.0 °F - 68.0 °F 69% 29.79 in 10.0 mi South 23.0 mph 33.4 mph N/A   Clear
11:53 AM 82.0 °F 84.9 °F 68.0 °F 62% 29.77 in 10.0 mi South 21.9 mph 33.4 mph N/A   Clear
12:53 PM 87.1 °F 90.6 °F 68.0 °F 53% 29.80 in 10.0 mi SSW 23.0 mph 28.8 mph N/A   Clear
1:53 PM 91.9 °F 95.9 °F 68.0 °F 45% 29.79 in 10.0 mi SSW 17.3 mph 24.2 mph N/A   Clear
2:53 PM 97.0 °F 100.4 °F 66.0 °F 36% 29.75 in 10.0 mi SSW 13.8 mph - N/A   Clear
3:53 PM 99.0 °F 102.3 °F 64.9 °F 33% 29.70 in 10.0 mi SSE 8.1 mph - N/A   Clear
4:53 PM 96.1 °F 96.4 °F 61.0 °F 31% 29.68 in 10.0 mi South 10.4 mph - N/A   Mostly Cloudy
5:23 PM 96.8 °F - 50.0 °F 20% 29.75 in 10.0 mi SSW 23.0 mph 32.2 mph N/A   Clear
5:53 PM 84.0 °F 83.8 °F 59.0 °F 43% 29.68 in 10.0 mi SW 10.4 mph - 0.00 in   Partly Cloudy
6:44 PM 78.8 °F - 59.0 °F 51% 29.83 in 6.0 mi WSW 24.2 mph 38.0 mph 0.03 in Rain , Thunderstorm Light Thunderstorms and Rain
6:53 PM 79.0 °F - 57.9 °F 48% 29.79 in 10.0 mi WSW 23.0 mph 29.9 mph 0.03 in Rain , Thunderstorm Light Thunderstorms and Rain
7:44 PM 89.6 °F - 46.4 °F 22% 29.77 in 10.0 mi West 24.2 mph 54.1 mph 0.00 in Rain , Thunderstorm Light Rain
7:53 PM 87.1 °F - 48.0 °F 26% 29.78 in 10.0 mi WSW 15.0 mph 49.5 mph 0.00 in Rain , Thunderstorm Light Rain
7:57 PM 86.0 °F - 50.0 °F 29% 29.83 in 10.0 mi West 11.5 mph 34.5 mph 0.00 in Rain , Thunderstorm Light Rain
8:16 PM 87.8 °F - 48.2 °F 25% 29.77 in 10.0 mi NNW 15.0 mph 28.8 mph 0.00 in   Overcast
8:27 PM 84.2 °F - 51.8 °F 33% 29.79 in 10.0 mi NW 12.7 mph 17.3 mph 0.00 in Rain , Thunderstorm Light Thunderstorms and Rain
8:53 PM 79.0 °F - 57.0 °F 47% 29.73 in 10.0 mi North 11.5 mph - 0.00 in Thunderstorm Thunderstorm
9:35 PM 75.2 °F - 60.8 °F 61% 29.81 in 10.0 mi SSE 3.5 mph - N/A   Clear
9:53 PM 75.0 °F - 59.0 °F 57% 29.79 in 10.0 mi South 11.5 mph - N/A Thunderstorm Clear
10:08 PM 75.2 °F - 57.2 °F 53% 29.85 in 10.0 mi South 9.2 mph - N/A   Clear
10:53 PM 72.0 °F - 60.1 °F 66% 29.82 in 10.0 mi SSE 5.8 mph - N/A   Clear
11:45 PM 75.2 °F - 59.0 °F 57% 29.87 in 10.0 mi ESE 12.7 mph - 0.00 in Rain , Thunderstorm Light Thunderstorms and Rain
11:53 PM 73.0 °F - 60.1 °F 64% 29.85 in 10.0 mi ESE 9.2 mph - 0.00 in Rain , Thunderstorm Light Thunderstorms and Rain